Retour au catalogue

COSMOS 1275 DEB

ActifPO
NORAD 27733·DEBRIS·🇷🇺 Russia

Lancé Jun 4, 1981 depuis Plesetsk Cosmodrome

Loading…

Prochains Passages (prochaines 24 heures)

TLE

FraisSource: Space-Track

Époque: Sep 14, 2026, 00:34 UTC

1 27733U 81053MN  26257.02427163  .00001641  00000-0  72558-3 0  9998
2 27733  83.1086 113.4402 0029131  88.9631 271.4889 14.22458644380006

Suivez COSMOS 1275 DEB en temps réel avec AllMySat

Download on the App Store